Погода в Уэст-Палм-Бич

США     26°42′21″N   80°03′02″W
темп.,
°C
ветер,
м/с
пор.,
м/с
влажн.,
%
обл.,
%
осадки,
мм/ч
давл.,
гПа
погр.,
м
7 июля, чт
чт723:00+28ююв457213 0.0 1017755
02:00+28ююв3474100 1.6 1017548
05:00+28ююв3473100 0.1 1016615
08:00+29ююв4470100 0.1 1017870
11:00+30юв5464100 0.1 10181125
14:00+30вюв656222 0.1 1018953
17:00+30вюв666268 0.0 10171097
20:00+29юв566544 0.0 1017941
8 июля, пт
пт823:00+29юв566314 0.0 1018906
02:00+28юв566857 0.0 1017902
05:00+28юв467367 0.1 1017662
08:00+29юв457158 0.1 1018915
11:00+30юв566598 0.2 10191163
14:00+30юв65647 0.6 10191080
17:00+30юв666696 0.3 1019881
20:00+29юв67705 0.3 1018858
9 июля, сб
сб923:00+29юв677258 0.0 1020947
02:00+29ююв577416 0.1 1019802
05:00+28ююв56757 0.2 1018738
08:00+28ююв457621 0.8 1019745
11:00+30юв546626 0.6 10191022
14:00+30юв76657 0.8 1019872
17:00+30ююв66695 0.3 1018769
20:00+29ююв567399 1.1 1018495
10 июля, вс
вс1023:00+29ююв6772100 0.1 1018635
02:00+28ю4572100 0.2 1017564
05:00+28ююз3472100 0.0 1016529
08:00+28юз237089 0.0 1017436
11:00+31ююв556117 0.1 10171239
14:00+30ююв766534 1.5 1016906
17:00+29ююв777133 1.5 1015646
20:00+29ююв677369 5.6 1014440
11 июля, пн
пн1123:00+28ююв577613 5.3 1016341
02:00+28ю57737 6.3 1015548
05:00+27ююз34760 0.0 1014411
08:00+28ююз34720 0.0 1015597
11:00+31юв446227 0.0 10161179
14:00+30юв55676 1.9 1015757
17:00+30юв546428 0.8 1014838
20:00+29юв567156 0.8 1014758